Location: Muenchen
(48.1800°N, 11.5800°E)
Time: 17:28:10
(UTC+02:00)

ISS - Visible Passes

Search period start: 16 September 2014 00:00
Search period end: 26 September 2014 00:00
Orbit: 414 x 417 km, 51.6° (Epoch: 16 September)

Date Brightness Start Highest point End Pass type
(mag) Time Alt. Az. Time Alt. Az. Time Alt. Az.
16 Sep -1.4 04:44:57 22° SE 04:45:06 22° SE 04:47:45 10° E visible
16 Sep -3.3 06:18:11 10° WSW 06:21:32 83° NNW 06:24:53 10° ENE visible
17 Sep -0.1 03:58:20 10° ESE 03:58:20 10° ESE 03:58:27 10° ESE visible
17 Sep -3.2 05:31:14 28° SW 05:32:50 71° SSE 05:36:10 10° ENE visible
18 Sep -2.5 04:44:32 44° SE 04:44:32 44° SE 04:47:23 10° ENE visible
18 Sep -2.8 06:17:36 10° W 06:20:53 53° NNW 06:24:10 10° ENE visible
19 Sep -0.3 03:57:46 15° E 03:57:46 15° E 03:58:29 10° E visible
19 Sep -3.1 05:30:39 31° W 05:32:04 66° NNW 05:35:23 10° ENE visible
20 Sep -2.7 04:43:49 58° ENE 04:43:49 58° ENE 04:46:35 10° ENE visible
20 Sep -2.5 06:16:57 10° WNW 06:20:11 44° N 06:23:24 10° ENE visible
21 Sep -0.3 03:56:56 16° ENE 03:56:56 16° ENE 03:57:44 10° ENE visible
21 Sep -2.6 05:29:49 27° WNW 05:31:15 47° N 05:34:30 10° ENE visible
22 Sep -2.3 04:42:54 46° NNE 04:42:54 46° NNE 04:45:35 10° ENE visible
22 Sep -2.5 06:16:05 10° WNW 06:19:20 46° N 06:22:35 10° E visible
23 Sep -0.2 03:55:58 15° ENE 03:55:58 15° ENE 03:56:40 10° ENE visible
23 Sep -2.4 05:28:50 26° NW 05:30:20 44° N 05:33:33 10° ENE visible
24 Sep -2.0 04:41:53 39° NNE 04:41:53 39° NNE 04:44:31 10° ENE visible
24 Sep -2.9 06:14:59 10° WNW 06:18:18 63° NNE 06:21:37 10° E visible
25 Sep 0.0 03:54:57 14° ENE 03:54:57 14° ENE 03:55:28 10° ENE visible
25 Sep -2.6 05:27:49 28° NW 05:29:15 51° N 05:32:32 10° E visible
